Weather History for Hamilton Island, QU

Change the Weather History Date:

Thursday, April 19, 2012

  Actual Average Record
Temperature  
Mean Temperature 76 °F -  
Max Temperature 79 °F - - ()
Min Temperature 73 °F - - ()
Cooling Degree Days 11    
Growing Degree Days 26 (Base 50)    
Moisture  
Dew Point 72 °F    
Average Humidity 87    
Maximum Humidity 100    
Minimum Humidity 72    
Precipitation  
Precipitation 0.00 in - - ()
Sea Level Pressure  
Sea Level Pressure 29.92 in    
Wind  
Wind Speed 15 mph ()    
Max Wind Speed 22 mph    
Max Gust Speed -    
T = Trace of Precipitation, MM = Missing Value Source: Averaged Metar Reports

Daily Weather History Graph

Daily Weather History Graph

Search for Another Location

Airport:

Trip Planner

Search our weather history database for the weather conditions in past years. The results will help you decide how hot, cold, wet, or windy it might be!

Date:

Astronomy

Apr. 19, 2012 Rise Set
Actual Time 6:16 AM EST 5:49 PM EST
Civil Twilight 5:54 AM EST 6:12 PM EST
Nautical Twilight 5:28 AM EST 6:38 PM EST
Astronomical Twilight 5:02 AM EST 7:03 PM EST
Moon 4:19 AM EST (4/19) 4:21 PM EST (4/19)
Length of Visible Light 12h 18m
Length of Day
11h 33m
Waning Crescent, 5% of the Moon is Illuminated
Apr 19
Waning Crescent
Apr 21
New
Apr 29
First Quarter
May 6
Full
May 13
Last Quarter

Hourly Weather History & Observations

Time (EST) Temp. Dew Point Humidity Pressure Visibility Wind Dir Wind Speed Gust Speed Precip Events Conditions
12:00 AM 76 °F 73 °F 88% 29.93 in - SE 16.1 mph - -  
12:00 AM 77.0 °F 73.4 °F 89% 29.92 in - SE 16.1 mph - N/A   Unknown
12:30 AM 75.2 °F 73.4 °F 94% 29.92 in - SE 15.0 mph - N/A   Unknown
1:00 AM 75.2 °F 71.6 °F 89% 29.89 in - ESE 17.3 mph - N/A   Unknown
1:30 AM 75.2 °F 73.4 °F 94% 29.89 in - SE 16.1 mph - N/A   Unknown
2:00 AM 73.4 °F 73.4 °F 100% 29.89 in - South 13.8 mph - N/A   Unknown
2:30 AM 75.2 °F 73.4 °F 94% 29.89 in - SSE 15.0 mph - N/A   Unknown
3:00 AM 74 °F 73 °F 94% 29.89 in - SSE 16.1 mph - -  
3:00 AM 73.4 °F 73.4 °F 100% 29.89 in - SSE 16.1 mph - N/A   Unknown
3:30 AM 73.4 °F 73.4 °F 100% 29.89 in - SSE 15.0 mph - N/A   Unknown
4:00 AM 75.2 °F 73.4 °F 94% 29.89 in - SSE 16.1 mph - N/A   Unknown
4:30 AM 73.4 °F 73.4 °F 100% 29.89 in - SSE 17.3 mph - N/A   Unknown
5:00 AM 73.4 °F 73.4 °F 100% 29.89 in - SSE 15.0 mph - N/A   Unknown
5:30 AM 73.4 °F 71.6 °F 94% 29.89 in - SSE 13.8 mph - N/A   Unknown
6:00 AM 74 °F 73 °F 96% 29.91 in - SSE 16.1 mph - -  
6:00 AM 75.2 °F 73.4 °F 94% 29.89 in - SSE 16.1 mph - N/A   Unknown
6:30 AM 73.4 °F 73.4 °F 100% 29.92 in - SSE 16.1 mph - N/A   Unknown
7:00 AM 73.4 °F 73.4 °F 100% 29.92 in - SSE 15.0 mph - N/A   Unknown
7:30 AM 75.2 °F 71.6 °F 89% 29.95 in - SSE 16.1 mph - N/A   Unknown
8:00 AM 75.2 °F 73.4 °F 94% 29.95 in - SSE 17.3 mph - N/A   Unknown
8:30 AM 75.2 °F 73.4 °F 94% 29.95 in - SSE 16.1 mph - N/A   Unknown
9:00 AM 76 °F 72 °F 85% 29.97 in - SSE 17.3 mph - -  
9:00 AM 77.0 °F 71.6 °F 83% 29.98 in - SSE 17.3 mph - N/A   Unknown
9:30 AM 77.0 °F 71.6 °F 83% 29.98 in - SSE 18.4 mph - N/A   Unknown
10:00 AM 78.8 °F 73.4 °F 83% 29.98 in - SSE 17.3 mph - N/A   Unknown
10:30 AM 77.0 °F 73.4 °F 89% 29.98 in - SSE 18.4 mph - N/A   Unknown
11:00 AM 78.8 °F 73.4 °F 83% 29.95 in - SSE 18.4 mph - N/A   Unknown
11:30 AM 77.0 °F 73.4 °F 89% 29.95 in - SSE 17.3 mph - N/A   Unknown
12:00 PM 77 °F 71 °F 77% 29.94 in - SSE 18.4 mph - -  
12:00 PM 77.0 °F 71.6 °F 83% 29.95 in - SSE 18.4 mph - N/A   Unknown
12:30 PM 77.0 °F 71.6 °F 83% 29.92 in - SSE 18.4 mph - N/A   Unknown
1:00 PM 78.8 °F 73.4 °F 83% 29.92 in - SSE 19.6 mph - N/A   Unknown
1:30 PM 78.8 °F 73.4 °F 83% 29.89 in - SSE 21.9 mph - N/A   Unknown
2:00 PM 77.0 °F 71.6 °F 83% 29.89 in - SSE 21.9 mph - N/A   Unknown
2:30 PM 78.8 °F 73.4 °F 83% 29.89 in - SSE 19.6 mph - N/A   Unknown
3:00 PM 79 °F 71 °F 72% 29.89 in - SE 16.1 mph - -  
3:00 PM 78.8 °F 71.6 °F 78% 29.89 in - SE 16.1 mph - N/A   Unknown
3:30 PM 78.8 °F 71.6 °F 78% 29.89 in - ESE 18.4 mph - N/A   Unknown
4:00 PM 77.0 °F 69.8 °F 78% 29.89 in - ESE 18.4 mph - N/A   Unknown
4:30 PM 77.0 °F 71.6 °F 83% 29.89 in - ESE 19.6 mph - N/A   Unknown
5:00 PM 77.0 °F 71.6 °F 83% 29.92 in - ESE 19.6 mph - N/A   Unknown
5:30 PM 77.0 °F 71.6 °F 83% 29.92 in - SE 19.6 mph - N/A   Unknown
6:00 PM 76 °F 72 °F 82% 29.91 in - SE 18.4 mph - -  
6:00 PM 75.2 °F 71.6 °F 89% 29.92 in - SE 18.4 mph - N/A   Unknown
6:30 PM 75.2 °F 71.6 °F 89% 29.92 in - ESE 17.3 mph - N/A   Unknown
7:00 PM 77.0 °F 71.6 °F 83% 29.92 in - SE 17.3 mph - N/A   Unknown
7:30 PM 77.0 °F 68.0 °F 74% 29.95 in - ESE 18.4 mph - N/A   Unknown
8:00 PM 77.0 °F 69.8 °F 78% 29.95 in - ESE 16.1 mph - N/A   Unknown
8:30 PM 77.0 °F 71.6 °F 83% 29.95 in - SE 15.0 mph - N/A   Unknown
9:00 PM 76 °F 70 °F 77% 29.96 in - SE 12.7 mph - -  
9:00 PM 77.0 °F 69.8 °F 78% 29.95 in - SE 12.7 mph - N/A   Unknown
9:30 PM 77.0 °F 69.8 °F 78% 29.95 in - ESE 15.0 mph - N/A   Unknown
10:00 PM 77.0 °F 71.6 °F 83% 29.95 in - ESE 15.0 mph - N/A   Unknown
10:30 PM 77.0 °F 69.8 °F 78% 29.95 in - East 16.1 mph - N/A   Unknown
11:00 PM 77.0 °F 71.6 °F 83% 29.95 in - ESE 15.0 mph - N/A   Unknown
11:30 PM 77.0 °F 71.6 °F 83% 29.95 in - ESE 15.0 mph - N/A   Unknown